EN

Hourly Weather Palakollu

Today, 1 March, Monday

Time Temperature Precipitation Wind Pressure Humidity
00:00 +23°C° 0 mm 1 mps 757 mmHg 92%
01:00 +23°C° 0 mm 1 mps 756 mmHg 93%
02:00 +22°C° 0 mm 1 mps 756 mmHg 94%
03:00 +22°C° 0 mm 1 mps 756 mmHg 94%
04:00 +22°C° 0 mm 1 mps 756 mmHg 95%
05:00 +21°C° 0 mm 1 mps 757 mmHg 95%
06:00 +22°C° 0 mm 0 mps 757 mmHg 85%
07:00 +24°C° 0 mm 0 mps 758 mmHg 75%
08:00 +27°C° 0 mm 0 mps 759 mmHg 65%
09:00 +31°C° 0 mm 1 mps 759 mmHg 55%
10:00 +34°C° 0 mm 2 mps 759 mmHg 45%
11:00 +36°C° 0 mm 3 mps 759 mmHg 35%
12:00 +37°C° 0 mm 3 mps 758 mmHg 33%
13:00 +37°C° 0 mm 3 mps 757 mmHg 32%
14:00 +37°C° 0 mm 4 mps 756 mmHg 30%
15:00 +35°C° 0 mm 4 mps 756 mmHg 39%
16:00 +33°C° 0 mm 4 mps 756 mmHg 48%
17:00 +30°C° 0 mm 5 mps 756 mmHg 56%
18:00 +29°C° 0 mm 4 mps 757 mmHg 63%
19:00 +28°C° 0 mm 4 mps 757 mmHg 70%
20:00 +26°C° 0 mm 3 mps 758 mmHg 77%
21:00 +26°C° 0 mm 2 mps 758 mmHg 81%
22:00 +25°C° 0 mm 2 mps 758 mmHg 86%
23:00 +24°C° 0 mm 1 mps 758 mmHg 90%

Tomorrow, 2 March, Tuesday

Time Temperature Precipitation Wind Pressure Humidity
00:00 +24°C° 0 mm 1 mps 757 mmHg 91%
01:00 +23°C° 0 mm 1 mps 757 mmHg 92%
02:00 +23°C° 0 mm 1 mps 756 mmHg 94%
03:00 +20°C° 0 mm 0 mps 756 mmHg 94%
04:00 +20°C° 0 mm 0 mps 757 mmHg 94%
05:00 +20°C° 0 mm 0 mps 757 mmHg 94%
06:00 +22°C° 0 mm 0 mps 757 mmHg 85%
07:00 +25°C° 0 mm 0 mps 758 mmHg 75%
08:00 +27°C° 0 mm 0 mps 759 mmHg 66%
09:00 +31°C° 0 mm 1 mps 759 mmHg 55%
10:00 +34°C° 0 mm 2 mps 759 mmHg 45%
11:00 +37°C° 0 mm 3 mps 759 mmHg 34%
12:00 +37°C° 0 mm 3 mps 758 mmHg 33%
13:00 +37°C° 0 mm 4 mps 757 mmHg 32%
14:00 +37°C° 0 mm 4 mps 756 mmHg 32%
15:00 +35°C° 0 mm 4 mps 756 mmHg 40%
16:00 +33°C° 0 mm 5 mps 756 mmHg 48%
17:00 +30°C° 0 mm 5 mps 755 mmHg 56%
18:00 +29°C° 0 mm 4 mps 756 mmHg 63%
19:00 +28°C° 0 mm 4 mps 756 mmHg 69%
20:00 +26°C° 0 mm 3 mps 757 mmHg 76%
21:00 +26°C° 0 mm 3 mps 757 mmHg 80%
22:00 +25°C° 0 mm 2 mps 757 mmHg 84%
23:00 +24°C° 0 mm 2 mps 757 mmHg 88%

Day after tomorrow, 3 March, Wednesday

Time Temperature Precipitation Wind Pressure Humidity
00:00 +24°C° 0 mm 1 mps 756 mmHg 89%
01:00 +23°C° 0 mm 1 mps 756 mmHg 90%
02:00 +23°C° 0 mm 1 mps 756 mmHg 91%
03:00 +22°C° 0 mm 1 mps 756 mmHg 92%
04:00 +22°C° 0 mm 1 mps 756 mmHg 92%
05:00 +22°C° 0 mm 1 mps 756 mmHg 93%
06:00 +24°C° 0 mm 1 mps 757 mmHg 82%
07:00 +27°C° 0 mm 1 mps 758 mmHg 72%
08:00 +30°C° 0 mm 1 mps 758 mmHg 61%
09:00 +31°C° 0 mm 1 mps 758 mmHg 52%
10:00 +34°C° 0 mm 2 mps 758 mmHg 43%
11:00 +36°C° 0 mm 3 mps 758 mmHg 34%
12:00 +37°C° 0 mm 3 mps 757 mmHg 33%
13:00 +37°C° 0 mm 3 mps 756 mmHg 32%
14:00 +37°C° 0 mm 4 mps 755 mmHg 31%
15:00 +35°C° 0 mm 4 mps 755 mmHg 38%
16:00 +33°C° 0 mm 4 mps 755 mmHg 45%
17:00 +30°C° 0 mm 4 mps 755 mmHg 52%
18:00 +29°C° 0 mm 4 mps 756 mmHg 60%
19:00 +27°C° 0 mm 3 mps 756 mmHg 68%
20:00 +25°C° 0 mm 3 mps 757 mmHg 76%
21:00 +25°C° 0 mm 2 mps 757 mmHg 80%
22:00 +24°C° 0 mm 2 mps 757 mmHg 84%
23:00 +23°C° 0 mm 1 mps 757 mmHg 88%

4 March, Thursday

Time Temperature Precipitation Wind Pressure Humidity
00:00 +23°C° 0 mm 1 mps 757 mmHg 89%
01:00 +22°C° 0 mm 1 mps 756 mmHg 90%
02:00 +22°C° 0 mm 1 mps 756 mmHg 92%
03:00 +22°C° 0 mm 1 mps 756 mmHg 92%
04:00 +21°C° 0 mm 1 mps 756 mmHg 93%
05:00 +21°C° 0 mm 1 mps 757 mmHg 94%
06:00 +24°C° 0 mm 1 mps 757 mmHg 82%
07:00 +26°C° 0 mm 1 mps 758 mmHg 71%
08:00 +29°C° 0 mm 1 mps 759 mmHg 60%
09:00 +31°C° 0 mm 2 mps 759 mmHg 52%
10:00 +34°C° 0 mm 2 mps 759 mmHg 44%
11:00 +36°C° 0 mm 3 mps 758 mmHg 36%
12:00 +36°C° 0 mm 3 mps 758 mmHg 35%
13:00 +36°C° 0 mm 4 mps 757 mmHg 35%
14:00 +36°C° 0 mm 4 mps 756 mmHg 35%
15:00 +34°C° 0 mm 4 mps 756 mmHg 41%
16:00 +32°C° 0 mm 4 mps 756 mmHg 47%
17:00 +29°C° 0 mm 4 mps 756 mmHg 54%
18:00 +28°C° 0 mm 4 mps 756 mmHg 62%
19:00 +26°C° 0 mm 3 mps 757 mmHg 71%
20:00 +24°C° 0 mm 2 mps 757 mmHg 79%
21:00 +24°C° 0 mm 2 mps 758 mmHg 82%
22:00 +23°C° 0 mm 2 mps 758 mmHg 84%
23:00 +23°C° 0 mm 1 mps 758 mmHg 86%

5 March, Friday

Time Temperature Precipitation Wind Pressure Humidity
00:00 +22°C° 0 mm 1 mps 757 mmHg 88%
01:00 +22°C° 0 mm 1 mps 757 mmHg 89%
02:00 +19°C° 0 mm 0 mps 756 mmHg 91%
03:00 +21°C° 0 mm 1 mps 757 mmHg 92%
04:00 +21°C° 0 mm 1 mps 757 mmHg 93%
05:00 +20°C° 0 mm 1 mps 757 mmHg 94%
06:00 +23°C° 0 mm 1 mps 758 mmHg 82%
07:00 +26°C° 0 mm 1 mps 759 mmHg 70%
08:00 +29°C° 0 mm 1 mps 759 mmHg 58%
09:00 +30°C° 0 mm 2 mps 759 mmHg 51%
10:00 +32°C° 0 mm 2 mps 759 mmHg 44%
11:00 +35°C° 0 mm 3 mps 759 mmHg 37%
12:00 +35°C° 0 mm 3 mps 758 mmHg 36%
13:00 +35°C° 0 mm 4 mps 757 mmHg 36%
14:00 +36°C° 0 mm 4 mps 756 mmHg 36%
15:00 +34°C° 0 mm 4 mps 756 mmHg 43%
16:00 +32°C° 0 mm 4 mps 755 mmHg 50%
17:00 +29°C° 0 mm 5 mps 755 mmHg 57%
18:00 +28°C° 0 mm 4 mps 756 mmHg 64%
19:00 +27°C° 0 mm 4 mps 756 mmHg 71%
20:00 +25°C° 0 mm 4 mps 757 mmHg 79%
21:00 +25°C° 0 mm 3 mps 757 mmHg 83%
22:00 +24°C° 0 mm 2 mps 757 mmHg 88%
23:00 +23°C° 0 mm 1 mps 757 mmHg 93%

6 March, Saturday

Time Temperature Precipitation Wind Pressure Humidity
00:00 +22°C° 0 mm 1 mps 756 mmHg 93%
01:00 +22°C° 0 mm 1 mps 756 mmHg 94%
02:00 +22°C° 0 mm 1 mps 755 mmHg 94%
03:00 +22°C° 0 mm 1 mps 755 mmHg 94%
04:00 +22°C° 0 mm 1 mps 755 mmHg 94%
05:00 +21°C° 0 mm 1 mps 755 mmHg 94%
06:00 +24°C° 0 mm 1 mps 756 mmHg 85%
07:00 +26°C° 0 mm 1 mps 757 mmHg 75%
08:00 +29°C° 0 mm 1 mps 758 mmHg 65%
09:00 +31°C° 0 mm 1 mps 758 mmHg 55%
10:00 +35°C° 0 mm 2 mps 758 mmHg 44%
11:00 +38°C° 0 mm 2 mps 758 mmHg 34%
12:00 +38°C° 0 mm 3 mps 757 mmHg 33%
13:00 +38°C° 0 mm 3 mps 756 mmHg 32%
14:00 +39°C° 0 mm 3 mps 755 mmHg 31%
15:00 +36°C° 0 mm 4 mps 755 mmHg 40%
16:00 +34°C° 0 mm 5 mps 754 mmHg 49%
17:00 +30°C° 0 mm 5 mps 754 mmHg 58%
18:00 +29°C° 0 mm 5 mps 755 mmHg 65%
19:00 +27°C° 0 mm 4 mps 755 mmHg 73%
20:00 +26°C° 0 mm 3 mps 756 mmHg 81%
21:00 +25°C° 0 mm 2 mps 756 mmHg 84%
22:00 +25°C° 0 mm 2 mps 756 mmHg 88%
23:00 +24°C° 0 mm 1 mps 756 mmHg 91%
Show more

We Need Your Consent

Meteoprog and our Service Providers may store and access personal data such as cookies, device identifiers or other similar technologies on your device and process such data to personalise content and ads, as well as provide social media features and to analyse the traffic.

  • Store and/or access information on your device

    Cookies, device identifiers or other information can be stored or accessed on your device for the purposes indicated above.

  • Personalised ads and content, ad and content measurement, audience insights, and products development

    Ads and content can be personalised based on a profile. More data can be added to better personalise ads and content. Ad and content performance can be measured. Insights about the audience who saw the ads and content can be derived. Such data can be used to develop or improve user’s experience, systems and software.

By clicking ‘I Agree’ you will allow the use of indicated cookies, device identifiers, web beacons or other similar technologies. Your settings can be changed in the browser on your device.

For certain purposes, legitimate interests may be relied on, rather than consent. You can read more about this in our Privacy and Cookie Policy.